Location: Obersdorf
(47.4079°N, 10.2781°E)
Time: 21:23:50
(UTC+01:00)

AO-109 - Pass Details

Date: 02 December 2021
Orbit: 479 x 515 km, 60.7° (Epoch: 27 January)

Event Time Altitude Azimuth Distance (km) Brightness Sun altitude
Exits shadow 06:23:56 19° 320° (NW) 1,194 ? -13.5°
Maximum altitude 06:26:28 76° 43° (NE) 499 ? -13.1°
Drops below altitude 10° 06:30:10 10° 131° (SE) 1,651 ? -12.5°
Sets 06:32:18 0° 132° (SE) 2,529 ? -12.1°
